Epoch 2006 Nov. 1.0 TT = JDT 2454040.5 T 2006 Nov. 6.68276 TT MPC q 2.0882415 (2000.0) P Q n 0.14887974 Peri. 51.29125 -0.99602104 -0.02687593 a 3.5257024 Node 127.00619 -0.00332155 -0.94158449 e 0.4077091 Incl. 6.10793 +0.08905649 -0.33570274 P 6.62 >From 195 observations 2000 Jan. 4-2006 Jan. 27, mean residual 0".82.
m1 = 13.5 + 5 logΔ + 10.0 log r